Weather History for Watonga, OK

Change the Weather History Date:

Monday, December 30, 2013

  Actual Average Record
Temperature  
Mean Temperature 26 °F -  
Max Temperature 41 °F 44 °F 69 °F (1965)
Min Temperature 12 °F 24 °F -4 °F (1983)
Degree Days  
Heating Degree Days 38    
Moisture  
Dew Point 18 °F    
Average Humidity 76    
Maximum Humidity 96    
Minimum Humidity 48    
Precipitation  
Precipitation 0.00 in - - ()
Sea Level Pressure  
Sea Level Pressure 30.27 in    
Wind  
Wind Speed 2 mph (SSW)    
Max Wind Speed 13 mph    
Max Gust Speed 17 mph    
Visibility 10 miles    
Events      
Averages and records for this station are not official NWS values.
T = Trace of Precipitation, MM = Missing Value Source: NWS Daily Summary

Daily Weather History Graph

Daily Weather History Graph

Search for Another Location

Airport:

Trip Planner

Search our weather history database for the weather conditions in past years. The results will help you decide how hot, cold, wet, or windy it might be!

Date:

Astronomy

Dec. 30, 2013 Rise Set
Actual Time 7:43 AM CST 5:29 PM CST
Civil Twilight 7:15 AM CST 5:57 PM CST
Nautical Twilight 6:43 AM CST 6:29 PM CST
Astronomical Twilight 6:11 AM CST 7:00 PM CST
Moon 5:36 AM CST (12/30) 4:02 PM CST (12/30)
Length of Visible Light 10h 42m
Length of Day
9h 45m
Waning Crescent, 4% of the Moon is Illuminated
Dec 30
Waning Crescent
Jan 1
New
Jan 7
First Quarter
Jan 15
Full
Jan 23
Last Quarter

Hourly Weather History & Observations

Time (CST) Temp. Windchill Dew Point Humidity Pressure Visibility Wind Dir Wind Speed Gust Speed Precip Events Conditions
12:15 AM 16.7 °F - 13.1 °F 86% 30.28 in 10.0 mi Calm Calm - N/A   Clear
12:35 AM 16.9 °F - 13.3 °F 86% 30.28 in 10.0 mi Calm Calm - N/A   Clear
12:55 AM 16.2 °F - 11.8 °F 83% 30.27 in 10.0 mi Calm Calm - N/A   Clear
1:15 AM 15.4 °F - 13.3 °F 91% 30.26 in 10.0 mi Calm Calm - N/A   Clear
1:35 AM 15.4 °F - 12.6 °F 88% 30.27 in 10.0 mi Calm Calm - N/A   Clear
1:55 AM 15.4 °F - 12.9 °F 90% 30.27 in 10.0 mi Calm Calm - N/A   Clear
2:15 AM 14.7 °F - 12.7 °F 92% 30.26 in 10.0 mi Calm Calm - N/A   Clear
2:35 AM 14.5 °F - 12.6 °F 92% 30.27 in 10.0 mi Calm Calm - N/A   Clear
2:55 AM 14.4 °F - 13.1 °F 95% 30.27 in 10.0 mi Calm Calm - N/A   Clear
3:15 AM 14.5 °F - 11.3 °F 87% 30.26 in 10.0 mi Calm Calm - N/A   Clear
3:35 AM 14.4 °F - 11.8 °F 90% 30.26 in 10.0 mi Calm Calm - N/A   Clear
3:55 AM 14.4 °F - 12.9 °F 94% 30.25 in 10.0 mi Calm Calm - N/A   Clear
4:15 AM 14.0 °F - 12.4 °F 93% 30.25 in 10.0 mi Calm Calm - N/A   Clear
4:35 AM 13.8 °F - 12.7 °F 95% 30.24 in 10.0 mi Calm Calm - N/A   Clear
4:55 AM 14.0 °F - 12.2 °F 93% 30.23 in 10.0 mi Calm Calm - N/A   Clear
5:15 AM 14.0 °F - 12.4 °F 93% 30.23 in 10.0 mi Calm Calm - N/A   Clear
5:35 AM 13.8 °F - 12.0 °F 93% 30.22 in 10.0 mi Calm Calm - N/A   Clear
5:55 AM 13.1 °F - 11.3 °F 93% 30.23 in 10.0 mi Calm Calm - N/A   Clear
6:15 AM 13.3 °F - 11.1 °F 91% 30.23 in 10.0 mi Calm Calm - N/A   Clear
6:35 AM 13.5 °F - 11.8 °F 93% 30.23 in 10.0 mi Calm Calm - N/A   Clear
6:55 AM 13.5 °F - 12.2 °F 95% 30.23 in 10.0 mi Calm Calm - N/A   Clear
7:15 AM 12.9 °F - 11.7 °F 95% 30.23 in 10.0 mi Calm Calm - N/A   Clear
7:35 AM 12.9 °F - 12.0 °F 96% 30.24 in 10.0 mi Calm Calm - N/A   Clear
7:55 AM 12.7 °F 6.7 °F 11.8 °F 96% 30.23 in 10.0 mi SSE 3.5 mph - N/A   Clear
8:15 AM 13.8 °F - 12.2 °F 93% 30.24 in 10.0 mi Calm Calm - N/A   Clear
8:35 AM 16.0 °F 8.8 °F 12.0 °F 84% 30.24 in 10.0 mi SSE 4.6 mph - N/A   Clear
8:55 AM 17.2 °F - 11.1 °F 77% 30.26 in 10.0 mi Calm Calm - N/A   Clear
9:15 AM 18.3 °F 13.1 °F 12.0 °F 76% 30.27 in 10.0 mi SSW 3.5 mph - N/A   Clear
9:35 AM 19.6 °F 10.6 °F 12.7 °F 75% 30.26 in 10.0 mi South 6.9 mph - N/A   Clear
9:55 AM 21.2 °F 11.7 °F 12.4 °F 69% 30.25 in 10.0 mi South 8.1 mph - N/A   Clear
10:15 AM 23.5 °F 14.5 °F 13.5 °F 65% 30.25 in 10.0 mi South 8.1 mph - N/A   Clear
10:35 AM 25.5 °F 16.2 °F 14.9 °F 64% 30.27 in 10.0 mi SSW 9.2 mph - N/A   Clear
10:55 AM 26.8 °F 19.3 °F 15.3 °F 62% 30.27 in 10.0 mi SSW 6.9 mph - N/A   Clear
11:15 AM 28.8 °F 21.7 °F 16.2 °F 59% 30.28 in 10.0 mi SSW 6.9 mph - N/A   Clear
11:35 AM 30.0 °F 25.2 °F 16.7 °F 58% 30.28 in 10.0 mi SSW 4.6 mph - N/A   Clear
11:55 AM 31.3 °F 27.9 °F 16.9 °F 55% 30.27 in 10.0 mi South 3.5 mph - N/A   Clear
12:15 PM 32.0 °F 27.5 °F 18.1 °F 57% 30.25 in 10.0 mi South 4.6 mph - N/A   Clear
12:35 PM 33.4 °F 25.4 °F 18.9 °F 55% 30.24 in 10.0 mi SSW 10.4 mph - N/A   Clear
12:55 PM 35.1 °F 26.9 °F 19.4 °F 53% 30.23 in 10.0 mi SW 11.5 mph - N/A   Clear
1:15 PM 35.8 °F 27.3 °F 20.5 °F 54% 30.23 in 10.0 mi WSW 12.7 mph 16.1 mph N/A   Clear
1:35 PM 36.0 °F 28.0 °F 20.7 °F 54% 30.22 in 10.0 mi WSW 11.5 mph 17.3 mph N/A   Clear
1:55 PM 36.5 °F 30.3 °F 21.6 °F 55% 30.22 in 10.0 mi SW 8.1 mph - N/A   Clear
2:15 PM 37.6 °F 30.0 °F 22.3 °F 54% 30.21 in 10.0 mi WSW 11.5 mph - N/A   Clear
2:55 PM 40.1 °F 35.3 °F 23.0 °F 51% 30.21 in 10.0 mi WSW 6.9 mph - N/A   Clear
3:15 PM 41.0 °F 36.4 °F 23.4 °F 50% 30.21 in 10.0 mi WSW 6.9 mph - N/A   Clear
3:35 PM 41.9 °F 38.2 °F 23.5 °F 48% 30.22 in 10.0 mi SW 5.8 mph - N/A   Clear
3:55 PM 41.9 °F 36.9 °F 24.1 °F 49% 30.23 in 10.0 mi SSW 8.1 mph - N/A   Clear
4:15 PM 41.4 °F 36.2 °F 24.4 °F 51% 30.24 in 10.0 mi SSW 8.1 mph - N/A   Clear
4:35 PM 41.0 °F 37.1 °F 25.5 °F 54% 30.24 in 10.0 mi SSW 5.8 mph - N/A   Clear
4:55 PM 40.1 °F - 25.5 °F 56% 30.25 in 10.0 mi Calm Calm - N/A   Clear
5:15 PM 38.8 °F 34.6 °F 25.5 °F 59% 30.25 in 10.0 mi South 5.8 mph - N/A   Clear
5:35 PM 35.4 °F 31.5 °F 26.1 °F 69% 30.26 in 10.0 mi South 4.6 mph - N/A   Clear
5:55 PM 34.0 °F 28.8 °F 25.9 °F 72% 30.28 in 10.0 mi SSW 5.8 mph - N/A   Clear
6:15 PM 33.8 °F 28.6 °F 24.8 °F 70% 30.28 in 10.0 mi South 5.8 mph - N/A   Clear
6:35 PM 34.0 °F - 25.3 °F 71% 30.29 in 10.0 mi Calm Calm - N/A   Clear
6:55 PM 33.4 °F 30.4 °F 23.9 °F 68% 30.30 in 10.0 mi South 3.5 mph - N/A   Clear
7:15 PM 32.9 °F - 24.3 °F 71% 30.31 in 10.0 mi Calm Calm - N/A   Clear
7:35 PM 33.1 °F - 24.4 °F 71% 30.31 in 10.0 mi Calm Calm - N/A   Clear
7:55 PM 30.0 °F - 24.4 °F 80% 30.32 in 10.0 mi Calm Calm - N/A   Clear
8:15 PM 28.4 °F - 25.3 °F 88% 30.33 in 10.0 mi Calm Calm - N/A   Clear
8:35 PM 27.5 °F - 25.2 °F 91% 30.34 in 10.0 mi Calm Calm - N/A   Clear
8:55 PM 29.3 °F - 24.3 °F 81% 30.35 in 10.0 mi Calm Calm - N/A   Clear
9:15 PM 29.3 °F - 23.9 °F 80% 30.35 in 10.0 mi Calm Calm - N/A   Clear
9:35 PM 29.3 °F 25.6 °F 23.9 °F 80% 30.36 in 10.0 mi South 3.5 mph - N/A   Clear
9:55 PM 30.0 °F 26.5 °F 25.3 °F 83% 30.37 in 10.0 mi South 3.5 mph - N/A   Clear
10:15 PM 28.8 °F - 24.4 °F 84% 30.36 in 10.0 mi Calm Calm - N/A   Clear
10:35 PM 31.1 °F - 24.8 °F 77% 30.37 in 10.0 mi Calm Calm - N/A   Clear
10:55 PM 31.5 °F - 24.8 °F 76% 30.37 in 10.0 mi Calm Calm - N/A   Clear
11:15 PM 31.8 °F - 24.6 °F 75% 30.37 in 10.0 mi Calm Calm - N/A   Clear
11:35 PM 30.7 °F - 24.6 °F 78% 30.37 in 10.0 mi Calm Calm - N/A   Clear
11:55 PM 30.6 °F 25.8 °F 24.8 °F 79% 30.36 in 10.0 mi SW 4.6 mph - N/A   Clear